Regional Weather Roundup
Issued by NWS Bismarck, ND

Current Version | Previous Version | Text Only | Print | Product List | Glossary On
Versions: 1 2 3 4 5 6 7 8 9 10 11 12 13 14 15 16 17 18 19 20 21 22 23 24 25 26 27 28 29 30 31 32 33 34 35 36 37 38 39 40 41 42 43 44 45 46 47 48 49 50
000
ASUS43 KBIS 170910
RWRBIS

NWR BROADCAST TEXT
NATIONAL WEATHER SERVICE BISMARCK ND
400 AM CDT FRI AUG 17 2018

NOTE: "FAIR" INDICATES FEW OR NO CLOUDS BELOW 12,000 FEET WITH NO
SIGNIFICANT WEATHER AND/OR OBSTRUCTIONS TO VISIBILITY.


CITY           SKY/WX    TMP DP  RH WIND       PRES   REMARKS
WILLISTON      CLEAR     68  58  70 S3        30.08F
MINOT          FOG       56  54  93 CALM      30.11S VSB 3/4
MINOT AFB      FOG       55  55 100 SE3       30.11R VSB 5/8
BISMARCK       PTCLDY    57  55  93 NE5       30.12S
DICKINSON      CLEAR     61  46  57 SE12      30.11S
GARRISON         N/A     59  57  93 E8        30.12R
HETTINGER ARPT CLEAR     58  50  75 CALM      30.14S
JAMESTOWN      MOCLDY    56  55  97 N7        30.12R FOG
CARRINGTON     FAIR      55  54  94 CALM      30.15S
HAZEN            N/A     54  54 100 CALM      30.13S
LINTON           N/A     59  57  94 E8        30.14R
MANDAN         CLOUDY    61  61 100 E7        30.13S
OAKES          PTSUNNY   55  55 100 CALM      30.11S
RUGBY          CLOUDY    55  55 100 E7        30.12F
STANLEY          N/A     54  54 100 CALM      30.12F
TIOGA          FAIR      54  54 100 E3        30.13S
WATFORD CITY   FAIR      59  55  88 CALM      30.10S
$$

CITY           SKY/WX    TMP DP  RH WIND       PRES   REMARKS
GRAND FORKS    FAIR      55  55 100 NW6       30.09R
GRAND FORKS AF FAIR      55  55 100 N5        30.11R
DEVILS LAKE    FAIR      53  53 100 CALM      30.14S FOG
FARGO          FAIR      57  57 100 N5        30.08R
CANDO          FOG       50  50 100 CALM      30.16S VSB<1/4
CAVALIER       FAIR      55  55 100 NW5       30.11F
GRAFTON        FAIR      57  57 100 N8        30.12S
GWINNER          N/A     57  57 100 CALM      30.10R
LANGDON        FOG       48  48 100 NE5       30.14S VSB<1/4
ROLLA          FOG       48  50 100 CALM      30.16R VSB<1/4
WALHALLA       FOG       55  55 100 CALM      30.12S VSB 1
$$

CITY           SKY/WX    TMP DP  RH WIND       PRES   REMARKS
ABERDEEN       CLEAR     56  54  93 CALM      30.10S
MOBRIDGE       CLEAR     67  60  78 SE3       30.09S
BUFFALO          N/A     63  49  60 SW3       30.12S
RAPID CITY     CLEAR     58  52  80 NW6       30.17R
GLASGOW        MOCLDY    70  47  43 E9        30.03S
SIDNEY         CLEAR     62  51  67 CALM      30.07F
GLENDIVE       PTCLDY    68  47  46 S5        30.09S
MILES CITY     CLEAR     67  47  48 SE9       30.07S
BAKER          CLEAR     59  48  67 SE6       30.13F
$$

CITY           SKY/WX    TMP DP  RH WIND       PRES   REMARKS
BILLINGS       CLOUDY    75  40  28 E7        30.09F
GREAT FALLS    CLEAR     60  40  47 SW8       30.09S
REGINA         MOCLDY    59  54  82 SE15      30.04F
ESTEVAN        CLEAR     54  54 100 E8        30.09S SMOKE
$$




USA.gov is the U.S. government's official web portal to all federal, state and local government web resources and services.